Santa Ana, CA

8:04 AM PDT on July 28, 2017 (GMT -0700)
John Wayne-Orange County

Weather History for KSNA - June, 2013

Change the Weather History Date:

Sunday, June 23, 2013

  Actual Average Record
Temperature  
Mean Temperature 68 °F 68 °F  
Max Temperature 72 °F 75 °F 83 °F (2001)
Min Temperature 63 °F 62 °F 58 °F (1999)
Degree Days  
Heating Degree Days 0 0  
Month to date heating degree days 0 0  
Since 1 June heating degree days 0 0  
Since 1 July heating degree days 1096 1245  
Cooling Degree Days 3 3  
Month to date cooling degree days 63 52  
Year to date cooling degree days 143 119  
Since 1 June cooling degree days 63 52  
Growing Degree Days 16 (Base 50)    
Moisture  
Dew Point 56 °F    
Average Humidity 66    
Maximum Humidity 78    
Minimum Humidity 53    
Precipitation  
Precipitation 0.00 in 0.00 in 0.01 in (2003)
Month to date precipitation 0.00 0.07  
Year to date precipitation 1.96 8.95  
Since 1 July precipitation 4.98  
Snow  
Snow 0.00 in - - ()
Month to date snowfall 0.0  
Year to date snowfall 0.0  
Snow Depth 0.00 in    
Sea Level Pressure  
Sea Level Pressure 29.85 in    
Wind  
Wind Speed 7 mph (SSW)    
Max Wind Speed 13 mph    
Max Gust Speed 20 mph    
Visibility 9 miles    
Events      
T = Trace of Precipitation, MM = Missing Value Source: NWS Daily Summary

Daily Weather History Graph

Daily Weather History Graph

Search for Another Location

Airport or City:

Trip Planner

Search our weather history database for the weather conditions in past years. The results will help you decide how hot, cold, wet, or windy it might be!

Date:

Astronomy

Jun. 23, 2013 Rise Set
Actual Time 5:42 AM PDT 8:05 PM PDT
Civil Twilight 5:13 AM PDT 8:34 PM PDT
Nautical Twilight 4:37 AM PDT 9:10 PM PDT
Astronomical Twilight 3:58 AM PDT 9:49 PM PDT
Moon 8:26 PM PDT (6/23) 6:01 AM PDT (6/23)
Length of Visible Light 15h 21m
Length of Day
14h 23m
Full, 100% of the Moon is Illuminated
Jun 23
Full
Jun 29
Last Quarter
Jul 8
New
Jul 15
First Quarter
Jul 22
Full

Hourly Weather History & Observations

Time (PDT) Temp. Dew Point Humidity Pressure Visibility Wind Dir Wind Speed Gust Speed Precip Events Conditions
12:53 AM 64.0 °F 55.9 °F 75% 29.87 in 9.0 mi South 4.6 mph - N/A   Overcast
1:53 AM 64.0 °F 55.9 °F 75% 29.86 in 8.0 mi SSE 4.6 mph - N/A   Overcast
2:53 AM 64.0 °F 55.9 °F 75% 29.85 in 9.0 mi ESE 8.1 mph - N/A   Overcast
3:53 AM 64.0 °F 55.9 °F 75% 29.84 in 9.0 mi ESE 5.8 mph - N/A   Overcast
4:04 AM 64.4 °F 55.4 °F 73% 29.84 in 9.0 mi ESE 3.5 mph - N/A   Overcast
4:53 AM 64.0 °F 55.9 °F 75% 29.84 in 9.0 mi ESE 6.9 mph - N/A   Overcast
5:33 AM 62.6 °F 55.4 °F 77% 29.85 in 9.0 mi SSE 5.8 mph - N/A   Overcast
5:53 AM 63.0 °F 55.0 °F 75% 29.85 in 7.0 mi SSE 5.8 mph - N/A   Overcast
6:53 AM 63.0 °F 55.9 °F 78% 29.86 in 8.0 mi SE 5.8 mph - N/A   Overcast
7:53 AM 64.0 °F 55.9 °F 75% 29.88 in 7.0 mi SSE 4.6 mph - N/A   Overcast
8:03 AM 64.4 °F 55.4 °F 73% 29.88 in 6.0 mi Variable 4.6 mph - N/A   Haze
8:53 AM 64.0 °F 55.0 °F 73% 29.88 in 7.0 mi Variable 5.8 mph - N/A   Overcast
9:53 AM 64.9 °F 55.0 °F 70% 29.88 in 8.0 mi SSE 3.5 mph - N/A   Overcast
10:53 AM 66.9 °F 54.0 °F 63% 29.88 in 9.0 mi Variable 4.6 mph - N/A   Overcast
11:53 AM 70.0 °F 54.0 °F 57% 29.88 in 10.0 mi SSW 10.4 mph - N/A   Mostly Cloudy
12:16 PM 69.8 °F 53.6 °F 56% 29.88 in 10.0 mi SW 11.5 mph - N/A   Mostly Cloudy
12:53 PM 71.1 °F 54.0 °F 55% 29.87 in 10.0 mi SSW 6.9 mph 16.1 mph N/A   Mostly Cloudy
1:53 PM 71.1 °F 55.9 °F 59% 29.86 in 10.0 mi SW 9.2 mph - N/A   Scattered Clouds
2:53 PM 69.1 °F 55.9 °F 63% 29.84 in 10.0 mi WSW 8.1 mph 17.3 mph N/A   Mostly Cloudy
3:53 PM 70.0 °F 55.9 °F 61% 29.83 in 9.0 mi SSW 8.1 mph 16.1 mph N/A   Overcast
4:53 PM 70.0 °F 55.9 °F 61% 29.82 in 10.0 mi SSW 11.5 mph - N/A   Overcast
5:24 PM 69.8 °F 55.4 °F 60% 29.81 in 10.0 mi SSW 9.2 mph - N/A   Scattered Clouds
5:53 PM 68.0 °F 55.0 °F 63% 29.81 in 9.0 mi SSW 9.2 mph - N/A   Mostly Cloudy
6:50 PM 66.2 °F 55.4 °F 68% 29.82 in 9.0 mi WSW 6.9 mph - N/A   Mostly Cloudy
6:53 PM 66.9 °F 55.9 °F 68% 29.82 in 9.0 mi WSW 8.1 mph - N/A   Mostly Cloudy
7:53 PM 66.0 °F 55.0 °F 68% 29.82 in 9.0 mi WSW 5.8 mph - N/A   Overcast
8:50 PM 64.4 °F 55.4 °F 73% 29.82 in 8.0 mi WSW 4.6 mph - N/A   Mostly Cloudy
8:53 PM 64.9 °F 55.0 °F 70% 29.82 in 8.0 mi SW 4.6 mph - N/A   Mostly Cloudy
9:53 PM 64.0 °F 57.0 °F 78% 29.84 in 8.0 mi SSW 5.8 mph - N/A   Mostly Cloudy
10:34 PM 64.4 °F 57.2 °F 77% 29.84 in 8.0 mi SW 4.6 mph - N/A   Overcast
10:53 PM 64.9 °F 57.0 °F 75% 29.84 in 8.0 mi SW 4.6 mph - N/A   Overcast
11:53 PM 64.9 °F 57.0 °F 75% 29.84 in 10.0 mi Calm Calm - N/A   Overcast